Bookmark and Share
Track history (hours):
 

Kasagimaru

Last reported at 2014-Apr-18 10:34 UTC. Time now 2014-Apr-18 10:42 UTC.
Position N 34°33' E 135°27'.

Length 42 m; draft 3.5 m.

Type: Tug. MMSI: 431300268.

NotesDate/timePositionNaut miles runAvg speedWind from/ knotsBaromVisibWave heightAir tempDewpointWater temp
2014-Apr-18 10:34N 34°33' E 135°27'0 0.0
2014-Apr-18 09:34N 34°33' E 135°27'0 0.1
2014-Apr-18 08:34N 34°33' E 135°27'3 0.8
2014-Apr-18 04:34N 34°31' E 135°24'10 9.5
2014-Apr-18 03:33N 34°27' E 135°13'1211.7
2014-Apr-18 02:34N 34°20' E 135°03'4 4.3
2014-Apr-18 01:33N 34°24' E 135°02'1413.7
2014-Apr-18 00:33N 34°32' E 135°16'7 6.8
2014-Apr-17 23:33N 34°33' E 135°24'2 1.7
2014-Apr-17 22:33N 34°33' E 135°26'0 0.4
2014-Apr-17 21:30N 34°33' E 135°27'0 0.0
2014-Apr-17 20:34N 34°33' E 135°27'0 0.0
2014-Apr-17 19:33N 34°33' E 135°27'0 0.0
2014-Apr-17 18:32N 34°33' E 135°27'0 0.0
2014-Apr-17 17:06N 34°33' E 135°27'0 0.0
2014-Apr-17 16:34N 34°33' E 135°27'0 0.0
2014-Apr-17 15:34N 34°33' E 135°27'0 0.0
2014-Apr-17 14:33N 34°33' E 135°27'0 0.0
2014-Apr-17 13:31N 34°33' E 135°27'0 0.0
2014-Apr-17 12:21N 34°33' E 135°27'0 0.0
2014-Apr-17 10:22N 34°33' E 135°27'0 0.0
2014-Apr-17 09:33N 34°33' E 135°27'0 0.0
2014-Apr-17 08:32N 34°33' E 135°27'0 0.0
2014-Apr-17 07:34N 34°33' E 135°27'0 0.0
2014-Apr-17 06:33N 34°33' E 135°27'0 0.0
2014-Apr-17 05:25N 34°33' E 135°27'0 0.0
2014-Apr-17 04:33N 34°33' E 135°27'0 0.0
2014-Apr-17 03:30N 34°33' E 135°27'2 2.1
2014-Apr-17 02:33N 34°33' E 135°24'6 5.5
2014-Apr-17 01:33N 34°33' E 135°18'1111.0
2014-Apr-17 00:33N 34°25' E 135°08'1312.9
2014-Apr-16 23:33N 34°14' E 134°59'6 5.5
2014-Apr-16 22:29N 34°19' E 135°04'1212.4
2014-Apr-16 21:33N 34°25' E 135°16'1212.1
2014-Apr-16 20:33N 34°33' E 135°26'0 0.3
2014-Apr-16 19:19N 34°33' E 135°27'0 0.0
2014-Apr-16 17:33N 34°33' E 135°27'0 0.0
2014-Apr-16 16:27N 34°33' E 135°27'0 0.0
2014-Apr-16 14:20N 34°33' E 135°27'0 0.0
2014-Apr-16 13:33N 34°33' E 135°27'0 0.0
2014-Apr-16 11:32N 34°33' E 135°27'0 0.0
2014-Apr-16 10:11N 34°33' E 135°27'0 0.0
2014-Apr-16 09:33N 34°33' E 135°27'0 0.0
2014-Apr-16 08:32N 34°33' E 135°27'1 0.8
2014-Apr-16 07:33N 34°33' E 135°26'1 0.8
2014-Apr-16 06:31N 34°33' E 135°25'5 5.0
2014-Apr-16 05:33N 34°34' E 135°19'4 4.4
2014-Apr-16 04:32N 34°31' E 135°24'0 0.1
2014-Apr-15 23:04N 34°31' E 135°24'1 1.3
2014-Apr-15 22:33N 34°31' E 135°23'2 1.9
2014-Apr-15 21:33N 34°33' E 135°23'3 1.4
2014-Apr-15 19:06N 34°33' E 135°27'0 0.0
2014-Apr-15 15:12N 34°33' E 135°27'0 0.0
2014-Apr-15 12:30N 34°33' E 135°27'0 0.0
2014-Apr-15 11:34N 34°33' E 135°27'0 0.0
2014-Apr-15 10:30N 34°33' E 135°27'0 0.0
2014-Apr-15 09:33N 34°33' E 135°27'0 0.0
2014-Apr-15 08:33N 34°33' E 135°27'0 0.0
2014-Apr-15 07:34N 34°33' E 135°27'0 0.0
2014-Apr-15 06:34N 34°33' E 135°27'0 0.0
2014-Apr-15 05:34N 34°33' E 135°27'0 0.0
2014-Apr-15 03:33N 34°33' E 135°27'0 0.0
2014-Apr-15 02:34N 34°33' E 135°27'0 0.0
2014-Apr-15 01:33N 34°33' E 135°27'0 0.2
2014-Apr-15 00:34N 34°33' E 135°27'1 0.7
2014-Apr-14 23:34N 34°33' E 135°26'5 4.4
2014-Apr-14 22:31N 34°34' E 135°20'4 0.2
2014-Apr-13 22:32N 34°33' E 135°25'0 0.1
2014-Apr-13 21:33N 34°33' E 135°25'0 0.2
2014-Apr-13 20:33N 34°33' E 135°25'0 0.0
2014-Apr-13 19:33N 34°33' E 135°25'0 0.1
2014-Apr-13 18:32N 34°33' E 135°25'0 0.1
2014-Apr-13 17:33N 34°33' E 135°25'0 0.1
2014-Apr-13 16:33N 34°33' E 135°25'0 0.1
2014-Apr-13 15:33N 34°33' E 135°25'0 0.1
2014-Apr-13 14:33N 34°33' E 135°25'0 0.0
2014-Apr-13 13:33N 34°33' E 135°25'0 0.1
2014-Apr-13 12:31N 34°33' E 135°25'0 0.1
2014-Apr-13 11:31N 34°33' E 135°25'0 0.0
2014-Apr-13 10:33N 34°33' E 135°25'0 0.0
2014-Apr-13 09:33N 34°33' E 135°25'0 0.1
2014-Apr-13 08:33N 34°33' E 135°25'0 0.1
2014-Apr-13 07:33N 34°33' E 135°25'0 0.0
2014-Apr-13 06:32N 34°33' E 135°25'0 0.1
2014-Apr-13 05:33N 34°33' E 135°25'0 0.1
2014-Apr-13 04:32N 34°33' E 135°25'0 0.1
2014-Apr-13 03:32N 34°33' E 135°25'0 0.1
2014-Apr-13 02:33N 34°33' E 135°25'0 0.0
2014-Apr-13 01:32N 34°33' E 135°25'0 0.1
2014-Apr-13 00:33N 34°33' E 135°25'0 0.1
2014-Apr-12 23:33N 34°33' E 135°25'1 0.8
2014-Apr-12 22:33N 34°33' E 135°24'3 3.1
2014-Apr-12 21:32N 34°34' E 135°20'5 0.7
2014-Apr-12 14:06N 34°33' E 135°27'0 0.0
2014-Apr-12 12:07N 34°33' E 135°27'0 0.0
2014-Apr-12 11:32N 34°33' E 135°27'0 0.0
2014-Apr-12 10:33N 34°33' E 135°27'0 0.0
2014-Apr-12 09:33N 34°33' E 135°27'0 0.0
2014-Apr-12 08:33N 34°33' E 135°27'0 0.0
2014-Apr-12 07:33N 34°33' E 135°27'4 3.3
2014-Apr-12 06:28N 34°31' E 135°23'1 0.1
2014-Apr-12 01:17N 34°31' E 135°24'2 3.2
2014-Apr-12 00:32N 34°33' E 135°25'0 0.2
2014-Apr-11 23:33N 34°32' E 135°25'1 0.7
2014-Apr-11 21:33N 34°33' E 135°27'0 0.0
2014-Apr-11 17:29N 34°33' E 135°27'0 0.0
2014-Apr-11 16:33N 34°33' E 135°27'0 0.0
2014-Apr-11 15:33N 34°33' E 135°27'0 0.0
2014-Apr-11 14:32N 34°33' E 135°27'0 0.0
2014-Apr-11 13:33N 34°33' E 135°27'0 0.0
2014-Apr-11 12:33N 34°33' E 135°27'0 0.0
2014-Apr-11 11:32N 34°33' E 135°27'0 0.0
2014-Apr-11 09:32N 34°33' E 135°27'0 0.0
2014-Apr-11 08:33N 34°33' E 135°27'5 5.0
2014-Apr-11 07:33N 34°32' E 135°21'2411.7
2014-Apr-11 05:32N 34°17' E 134°59'1514.9
2014-Apr-11 04:33N 34°28' E 135°10'1312.7
2014-Apr-11 03:34N 34°33' E 135°24'2 1.7
2014-Apr-11 02:32N 34°33' E 135°26'5 0.3
2014-Apr-10 06:03N 34°38' E 135°24'2 3.7
2014-Apr-10 05:33N 34°39' E 135°26'1 0.9
2014-Apr-10 04:33N 34°39' E 135°25'1 1.0
2014-Apr-10 03:33N 34°39' E 135°26'0 0.0
2014-Apr-10 02:33N 34°39' E 135°26'2 2.5
2014-Apr-10 01:33N 34°38' E 135°23'5 4.9
2014-Apr-10 00:33N 34°33' E 135°24'2 2.5
2014-Apr-09 23:33N 34°33' E 135°21'6 6.3
2014-Apr-09 22:33N 34°31' E 135°14'1513.6
2014-Apr-09 21:27N 34°20' E 135°02'9 9.9
2014-Apr-09 20:34N 34°11' E 135°02'6 6.1
2014-Apr-09 19:34N 34°13' E 135°09'0 0.0
2014-Apr-09 18:33N 34°13' E 135°09'0 0.0
2014-Apr-09 17:33N 34°13' E 135°09'0 0.0
2014-Apr-09 16:34N 34°13' E 135°09'0 0.0
2014-Apr-09 15:34N 34°13' E 135°09'0 0.0
2014-Apr-09 14:33N 34°13' E 135°09'0 0.0
2014-Apr-09 13:34N 34°13' E 135°09'0 0.0
2014-Apr-09 12:33N 34°13' E 135°09'0 0.0
2014-Apr-09 11:33N 34°13' E 135°09'0 0.0
2014-Apr-09 10:33N 34°13' E 135°09'0 0.0
2014-Apr-09 09:33N 34°13' E 135°09'0 0.0
2014-Apr-09 08:34N 34°13' E 135°09'0 0.0
2014-Apr-09 07:33N 34°13' E 135°09'0 0.0
2014-Apr-09 06:33N 34°13' E 135°09'6 5.8
2014-Apr-09 05:33N 34°14' E 135°02'1110.5
2014-Apr-09 04:33N 34°25' E 135°03'1514.6
2014-Apr-09 03:33N 34°32' E 135°18'5 5.4
2014-Apr-09 02:33N 34°33' E 135°24'2 1.9
2014-Apr-09 01:33N 34°33' E 135°27'0 0.0
2014-Apr-09 00:33N 34°33' E 135°27'0 0.0
2014-Apr-08 22:24N 34°33' E 135°27'0 0.0
2014-Apr-08 21:33N 34°33' E 135°27'0 0.0
2014-Apr-08 20:33N 34°33' E 135°27'0 0.0
2014-Apr-08 19:33N 34°33' E 135°27'0 0.0
2014-Apr-08 18:33N 34°33' E 135°27'0 0.0
2014-Apr-08 17:33N 34°33' E 135°27'0 0.0
2014-Apr-08 16:32N 34°33' E 135°27'0 0.0
2014-Apr-08 15:27N 34°33' E 135°27'0 0.0
2014-Apr-08 14:03N 34°33' E 135°27'0 0.0
2014-Apr-08 13:12N 34°33' E 135°27'0 0.0
2014-Apr-08 12:22N 34°33' E 135°27'0 0.0
2014-Apr-08 11:24N 34°33' E 135°27'  

Dump ship's entire track history

sailing weather and tide predictions

Kasagimaru — JJ3905 — position and weather